Time,TemperatureF,DewpointF,PressureIn,WindDirection,WindDirectionDegrees,WindSpeedMPH,WindSpeedGustMPH,Humidity,HourlyPrecipIn,Conditions,Clouds,dailyrainin,SoftwareType,DateUTC
2013-01-19 00:00:00,26.2,18.4,30.44,WSW,248,0.0,0.0,72,0.00,,OVC,0.00,VWS V14.00,2013-01-19 05:00:00,
2013-01-19 00:01:00,26.2,18.4,30.44,WSW,248,0.0,0.0,72,0.00,,OVC,0.00,VWS V14.00,2013-01-19 05:01:00,
2013-01-19 00:02:00,26.2,18.4,30.44,WSW,248,0.0,0.0,72,0.00,,OVC,0.00,VWS V14.00,2013-01-19 05:02:00,
2013-01-19 00:07:00,26.2,18.4,30.43,SW,225,0.0,0.0,72,0.00,,OVC,0.00,VWS V14.00,2013-01-19 05:07:00,
2013-01-19 00:12:00,26.2,18.1,30.42,South,180,0.0,0.0,71,0.00,,OVC,0.00,VWS V14.00,2013-01-19 05:12:00,
2013-01-19 00:17:00,26.2,18.1,30.42,SSW,202,0.0,0.0,71,0.00,,OVC,0.00,VWS V14.00,2013-01-19 05:17:00,
2013-01-19 00:22:00,26.2,18.1,30.41,SW,225,0.0,0.0,71,0.00,,OVC,0.00,VWS V14.00,2013-01-19 05:22:00,
2013-01-19 00:27:00,26.2,18.1,30.41,SW,225,0.0,0.0,71,0.00,,OVC,0.00,VWS V14.00,2013-01-19 05:27:00,
2013-01-19 00:32:00,26.2,18.1,30.42,SW,225,0.0,0.0,71,0.00,,OVC,0.00,VWS V14.00,2013-01-19 05:32:00,
2013-01-19 00:37:00,26.4,18.0,30.42,WSW,248,1.1,1.1,70,0.00,,OVC,0.00,VWS V14.00,2013-01-19 05:37:00,
2013-01-19 00:42:00,26.4,17.6,30.42,SW,225,0.0,0.0,69,0.00,,OVC,0.00,VWS V14.00,2013-01-19 05:42:00,
2013-01-19 00:47:00,26.4,17.6,30.42,SW,225,0.0,0.0,69,0.00,,OVC,0.00,VWS V14.00,2013-01-19 05:47:00,
2013-01-19 00:52:00,26.4,17.3,30.42,WSW,248,0.0,0.0,68,0.00,,OVC,0.00,VWS V14.00,2013-01-19 05:52:00,
2013-01-19 00:57:00,26.4,17.3,30.42,SW,225,0.6,0.6,68,0.00,,OVC,0.00,VWS V14.00,2013-01-19 05:57:00,
2013-01-19 01:02:00,26.4,17.3,30.43,WSW,248,0.0,0.0,68,0.00,,OVC,0.00,VWS V14.00,2013-01-19 06:02:00,
2013-01-19 01:07:00,26.4,16.9,30.42,SW,225,0.0,0.0,67,0.00,,OVC,0.00,VWS V14.00,2013-01-19 06:07:00,
2013-01-19 01:12:00,26.6,16.8,30.42,SW,225,0.0,0.0,66,0.00,,OVC,0.00,VWS V14.00,2013-01-19 06:12:00,
2013-01-19 01:17:00,26.7,16.9,30.42,West,270,0.0,0.0,66,0.00,,OVC,0.00,VWS V14.00,2013-01-19 06:17:00,
2013-01-19 01:22:00,26.7,16.9,30.42,SW,225,0.8,0.8,66,0.00,,OVC,0.00,VWS V14.00,2013-01-19 06:22:00,
2013-01-19 01:27:00,26.6,16.4,30.42,SW,225,0.0,0.0,65,0.00,,OVC,0.00,VWS V14.00,2013-01-19 06:27:00,
2013-01-19 01:32:00,26.6,16.8,30.42,SW,225,1.1,1.1,66,0.00,,OVC,0.00,VWS V14.00,2013-01-19 06:32:00,
2013-01-19 01:37:00,26.6,16.4,30.42,SW,225,0.0,0.0,65,0.00,,OVC,0.00,VWS V14.00,2013-01-19 06:37:00,
2013-01-19 01:42:00,26.6,16.4,30.41,SW,225,1.1,1.1,65,0.00,,OVC,0.00,VWS V14.00,2013-01-19 06:42:00,
2013-01-19 01:47:00,26.6,16.4,30.42,SW,225,0.0,0.0,65,0.00,,OVC,0.00,VWS V14.00,2013-01-19 06:47:00,
2013-01-19 01:52:00,26.6,16.4,30.41,SW,225,1.7,1.7,65,0.00,,OVC,0.00,VWS V14.00,2013-01-19 06:52:00,
2013-01-19 01:57:00,26.7,16.5,30.41,SW,225,1.1,1.1,65,0.00,,OVC,0.00,VWS V14.00,2013-01-19 06:57:00,
2013-01-19 02:02:00,26.7,16.5,30.41,WSW,248,0.0,0.0,65,0.00,,OVC,0.00,VWS V14.00,2013-01-19 07:02:00,
2013-01-19 02:07:00,26.9,16.4,30.41,West,270,0.0,0.0,64,0.00,,OVC,0.00,VWS V14.00,2013-01-19 07:07:00,
2013-01-19 02:12:00,27.1,16.9,30.41,SW,225,4.0,4.0,65,0.00,,OVC,0.00,VWS V14.00,2013-01-19 07:12:00,
2013-01-19 02:17:00,27.1,16.6,30.41,SW,225,0.8,0.8,64,0.00,,OVC,0.00,VWS V14.00,2013-01-19 07:17:00,
2013-01-19 02:22:00,27.3,16.8,30.40,SW,225,2.4,2.4,64,0.00,,OVC,0.00,VWS V14.00,2013-01-19 07:22:00,
2013-01-19 02:27:00,27.3,16.8,30.41,SW,225,1.1,3.1,64,0.00,,OVC,0.00,VWS V14.00,2013-01-19 07:27:00,
2013-01-19 02:32:00,27.5,16.9,30.40,SW,225,0.8,1.7,64,0.00,,OVC,0.00,VWS V14.00,2013-01-19 07:32:00,
2013-01-19 02:37:00,27.6,17.0,30.41,WSW,248,0.8,0.8,64,0.00,,OVC,0.00,VWS V14.00,2013-01-19 07:37:00,
2013-01-19 02:42:00,27.6,17.4,30.40,SW,225,1.5,1.5,65,0.00,,OVC,0.00,VWS V14.00,2013-01-19 07:42:00,
2013-01-19 02:47:00,27.6,17.4,30.41,SW,225,0.2,2.6,65,0.00,,OVC,0.00,VWS V14.00,2013-01-19 07:47:00,
2013-01-19 02:52:00,28.0,17.4,30.40,SW,225,0.0,2.0,64,0.00,,OVC,0.00,VWS V14.00,2013-01-19 07:52:00,
2013-01-19 02:57:00,28.0,17.8,30.39,SW,225,0.0,0.4,65,0.00,,OVC,0.00,VWS V14.00,2013-01-19 07:57:00,
2013-01-19 03:02:00,28.0,17.8,30.39,WSW,248,0.0,0.6,65,0.00,,OVC,0.00,VWS V14.00,2013-01-19 08:02:00,
2013-01-19 03:07:00,28.2,18.0,30.39,SW,225,0.0,0.0,65,0.00,,OVC,0.00,VWS V14.00,2013-01-19 08:07:00,
2013-01-19 03:12:00,28.2,18.0,30.39,WSW,248,1.3,1.3,65,0.00,,OVC,0.00,VWS V14.00,2013-01-19 08:12:00,
2013-01-19 03:17:00,28.2,18.0,30.38,SSW,202,0.0,0.0,65,0.00,,OVC,0.00,VWS V14.00,2013-01-19 08:17:00,
2013-01-19 03:22:00,28.2,18.3,30.38,SW,225,6.4,6.4,66,0.00,,OVC,0.00,VWS V14.00,2013-01-19 08:22:00,
2013-01-19 03:27:00,28.5,18.6,30.38,South,180,3.5,3.5,66,0.00,,OVC,0.00,VWS V14.00,2013-01-19 08:27:00,
2013-01-19 03:32:00,28.5,18.2,30.38,WSW,248,2.4,2.4,65,0.00,,OVC,0.00,VWS V14.00,2013-01-19 08:32:00,
2013-01-19 03:37:00,28.7,18.4,30.37,WSW,248,2.9,2.9,65,0.00,,OVC,0.00,VWS V14.00,2013-01-19 08:37:00,
2013-01-19 03:42:00,28.7,18.4,30.37,SW,225,3.1,3.1,65,0.00,,OVC,0.00,VWS V14.00,2013-01-19 08:42:00,
2013-01-19 03:47:00,28.9,18.6,30.37,SW,225,3.3,3.3,65,0.00,,OVC,0.00,VWS V14.00,2013-01-19 08:47:00,
2013-01-19 03:52:00,29.1,18.8,30.37,SW,225,2.9,2.9,65,0.00,,OVC,0.00,VWS V14.00,2013-01-19 08:52:00,
2013-01-19 03:57:00,29.1,18.8,30.36,WSW,248,8.9,8.9,65,0.00,,OVC,0.00,VWS V14.00,2013-01-19 08:57:00,
2013-01-19 04:02:00,29.1,18.8,30.36,WSW,248,2.6,2.6,65,0.00,,OVC,0.00,VWS V14.00,2013-01-19 09:02:00,
2013-01-19 04:07:00,29.1,18.5,30.36,SW,225,2.4,2.4,64,0.00,,OVC,0.00,VWS V14.00,2013-01-19 09:07:00,
2013-01-19 04:12:00,29.3,18.6,30.35,SW,225,3.3,3.3,64,0.00,,OVC,0.00,VWS V14.00,2013-01-19 09:12:00,
2013-01-19 04:17:00,29.3,18.6,30.35,WSW,248,2.6,2.6,64,0.00,,OVC,0.00,VWS V14.00,2013-01-19 09:17:00,
2013-01-19 04:22:00,29.4,18.4,30.35,WSW,248,1.7,1.7,63,0.00,,OVC,0.00,VWS V14.00,2013-01-19 09:22:00,
2013-01-19 04:27:00,29.4,18.4,30.35,WSW,248,2.6,2.6,63,0.00,,OVC,0.00,VWS V14.00,2013-01-19 09:27:00,
2013-01-19 04:32:00,29.8,18.8,30.35,WSW,248,6.0,6.0,63,0.00,,OVC,0.00,VWS V14.00,2013-01-19 09:32:00,
2013-01-19 04:37:00,29.8,18.4,30.35,SW,225,0.0,0.2,62,0.00,,OVC,0.00,VWS V14.00,2013-01-19 09:37:00,
2013-01-19 04:42:00,29.8,18.4,30.34,WSW,248,5.1,5.1,62,0.00,,OVC,0.00,VWS V14.00,2013-01-19 09:42:00,
2013-01-19 04:47:00,29.8,18.4,30.34,SW,225,3.3,3.3,62,0.00,,OVC,0.00,VWS V14.00,2013-01-19 09:47:00,
2013-01-19 04:52:00,29.8,18.4,30.34,SW,225,2.2,2.2,62,0.00,,OVC,0.00,VWS V14.00,2013-01-19 09:52:00,
2013-01-19 04:57:00,29.8,18.0,30.34,WSW,248,4.2,4.2,61,0.00,,OVC,0.00,VWS V14.00,2013-01-19 09:57:00,
2013-01-19 05:02:00,29.8,18.0,30.34,WSW,248,0.8,0.8,61,0.00,,OVC,0.00,VWS V14.00,2013-01-19 10:02:00,
2013-01-19 05:07:00,30.0,18.2,30.34,SW,225,1.7,1.7,61,0.00,,OVC,0.00,VWS V14.00,2013-01-19 10:07:00,
2013-01-19 05:12:00,30.0,18.2,30.34,WSW,248,3.8,3.8,61,0.00,,OVC,0.00,VWS V14.00,2013-01-19 10:12:00,
2013-01-19 05:17:00,30.0,18.2,30.34,SW,225,4.4,4.4,61,0.00,,OVC,0.00,VWS V14.00,2013-01-19 10:17:00,
2013-01-19 05:22:00,30.0,18.2,30.34,WSW,248,5.1,5.1,61,0.00,,OVC,0.00,VWS V14.00,2013-01-19 10:22:00,
2013-01-19 05:27:00,30.3,18.5,30.33,SW,225,0.8,0.8,61,0.00,,OVC,0.00,VWS V14.00,2013-01-19 10:27:00,
2013-01-19 05:32:00,30.3,18.5,30.33,WSW,248,5.1,5.1,61,0.00,,OVC,0.00,VWS V14.00,2013-01-19 10:32:00,
2013-01-19 05:37:00,30.3,18.9,30.34,SW,225,4.4,4.4,62,0.00,,OVC,0.00,VWS V14.00,2013-01-19 10:37:00,
2013-01-19 05:42:00,30.5,19.0,30.34,SW,225,8.9,8.9,62,0.00,,OVC,0.00,VWS V14.00,2013-01-19 10:42:00,
2013-01-19 05:47:00,30.7,19.6,30.34,SW,225,2.9,2.9,63,0.00,,OVC,0.00,VWS V14.00,2013-01-19 10:47:00,
2013-01-19 05:52:00,30.7,19.6,30.34,SW,225,8.2,8.2,63,0.00,,OVC,0.00,VWS V14.00,2013-01-19 10:52:00,
2013-01-19 05:57:00,30.9,20.2,30.34,SSW,202,3.3,3.3,64,0.00,,OVC,0.00,VWS V14.00,2013-01-19 10:57:00,
2013-01-19 06:02:00,31.1,20.4,30.34,SW,225,5.5,5.5,64,0.00,,OVC,0.00,VWS V14.00,2013-01-19 11:02:00,
2013-01-19 06:07:00,31.2,20.5,30.34,SW,225,1.1,1.1,64,0.00,,OVC,0.00,VWS V14.00,2013-01-19 11:07:00,
2013-01-19 06:12:00,31.2,20.5,30.34,SW,225,0.0,0.0,64,0.00,,OVC,0.00,VWS V14.00,2013-01-19 11:12:00,
2013-01-19 07:47:00,32.9,23.5,30.32,West,270,3.5,3.5,68,0.00,,OVC,0.00,VWS V14.00,2013-01-19 12:47:00,
2013-01-19 07:48:00,32.9,23.5,30.32,WSW,248,4.2,4.2,68,0.00,,OVC,0.00,VWS V14.00,2013-01-19 12:48:00,
2013-01-19 07:53:00,33.2,23.8,30.31,WSW,248,4.2,4.2,68,0.00,,OVC,0.00,VWS V14.00,2013-01-19 12:53:00,
2013-01-19 07:58:00,33.6,24.2,30.32,SW,225,0.8,0.8,68,0.00,,OVC,0.00,VWS V14.00,2013-01-19 12:58:00,
2013-01-19 08:03:00,34.1,24.3,30.32,WSW,248,1.1,1.1,67,0.00,,OVC,0.00,VWS V14.00,2013-01-19 13:03:00,
2013-01-19 08:08:00,34.3,24.5,30.32,SW,225,1.7,1.7,67,0.00,,OVC,0.00,VWS V14.00,2013-01-19 13:08:00,
2013-01-19 08:13:00,34.8,25.0,30.32,West,270,4.0,4.0,67,0.00,,OVC,0.00,VWS V14.00,2013-01-19 13:13:00,
2013-01-19 08:18:00,35.4,25.2,30.31,SW,225,2.9,2.9,66,0.00,,OVC,0.00,VWS V14.00,2013-01-19 13:18:00,
2013-01-19 08:23:00,35.9,25.7,30.32,WSW,248,5.5,5.5,66,0.00,,OVC,0.00,VWS V14.00,2013-01-19 13:23:00,
2013-01-19 08:28:00,36.5,25.9,30.32,WSW,248,7.1,7.1,65,0.00,,OVC,0.00,VWS V14.00,2013-01-19 13:28:00,
2013-01-19 08:33:00,37.2,26.2,30.32,WSW,248,2.2,2.2,64,0.00,,OVC,0.00,VWS V14.00,2013-01-19 13:33:00,
2013-01-19 08:38:00,37.5,26.1,30.32,WSW,248,1.5,1.5,63,0.00,,OVC,0.00,VWS V14.00,2013-01-19 13:38:00,
2013-01-19 08:43:00,37.9,26.5,30.32,SW,225,8.9,8.9,63,0.00,,OVC,0.00,VWS V14.00,2013-01-19 13:43:00,
2013-01-19 08:48:00,38.3,26.8,30.33,SW,225,0.0,0.0,63,0.00,,OVC,0.00,VWS V14.00,2013-01-19 13:48:00,
2013-01-19 08:53:00,38.8,26.9,30.32,SW,225,6.4,6.4,62,0.00,,OVC,0.00,VWS V14.00,2013-01-19 13:53:00,
2013-01-19 08:58:00,39.0,26.7,30.32,SSW,202,4.9,4.9,61,0.00,,OVC,0.00,VWS V14.00,2013-01-19 13:58:00,
2013-01-19 09:03:00,39.5,27.2,30.32,SW,225,4.9,4.9,61,0.00,,OVC,0.00,VWS V14.00,2013-01-19 14:03:00,
2013-01-19 09:08:00,40.1,27.4,30.32,West,270,0.0,0.0,60,0.00,,OVC,0.00,VWS V14.00,2013-01-19 14:08:00,
2013-01-19 09:13:00,40.6,27.4,30.32,WSW,248,5.8,5.8,59,0.00,,OVC,0.00,VWS V14.00,2013-01-19 14:13:00,
2013-01-19 09:18:00,41.0,27.8,30.32,SW,225,13.4,13.4,59,0.00,,OVC,0.00,VWS V14.00,2013-01-19 14:18:00,
2013-01-19 09:23:00,41.5,27.4,30.32,WSW,248,0.6,0.6,57,0.00,,OVC,0.00,VWS V14.00,2013-01-19 14:23:00,
2013-01-19 09:28:00,42.0,27.9,30.32,West,270,2.4,2.4,57,0.00,,OVC,0.00,VWS V14.00,2013-01-19 14:28:00,
2013-01-19 09:33:00,42.6,28.5,30.31,WSW,248,5.5,5.5,57,0.00,,OVC,0.00,VWS V14.00,2013-01-19 14:33:00,
2013-01-19 09:38:00,42.9,28.3,30.31,WSW,248,8.2,8.2,56,0.00,,OVC,0.00,VWS V14.00,2013-01-19 14:38:00,
2013-01-19 09:43:00,43.3,28.2,30.31,WSW,248,5.5,5.5,55,0.00,,OVC,0.00,VWS V14.00,2013-01-19 14:43:00,
2013-01-19 09:48:00,43.7,28.6,30.31,SW,225,9.6,9.6,55,0.00,,OVC,0.00,VWS V14.00,2013-01-19 14:48:00,
2013-01-19 09:53:00,44.2,28.6,30.31,WSW,248,5.1,5.1,54,0.00,,OVC,0.00,VWS V14.00,2013-01-19 14:53:00,
2013-01-19 09:58:00,44.4,28.4,30.31,WSW,248,2.9,2.9,53,0.00,,OVC,0.00,VWS V14.00,2013-01-19 14:58:00,
2013-01-19 10:03:00,44.9,28.8,30.31,NW,315,3.5,3.5,53,0.00,,OVC,0.00,VWS V14.00,2013-01-19 15:03:00,
2013-01-19 10:08:00,45.1,29.0,30.31,SSW,202,2.4,2.4,53,0.00,,OVC,0.00,VWS V14.00,2013-01-19 15:08:00,
2013-01-19 10:13:00,45.5,28.9,30.31,WSW,248,17.8,17.8,52,0.00,,OVC,0.00,VWS V14.00,2013-01-19 15:13:00,
2013-01-19 10:18:00,45.6,29.0,30.30,SW,225,10.9,10.9,52,0.00,,OVC,0.00,VWS V14.00,2013-01-19 15:18:00,
2013-01-19 10:23:00,46.2,29.6,30.30,WSW,248,2.0,2.0,52,0.00,,OVC,0.00,VWS V14.00,2013-01-19 15:23:00,
2013-01-19 10:28:00,46.5,29.4,30.30,WSW,248,3.3,3.3,51,0.00,,OVC,0.00,VWS V14.00,2013-01-19 15:28:00,
2013-01-19 10:33:00,46.7,29.5,30.29,SW,225,3.1,3.1,51,0.00,,OVC,0.00,VWS V14.00,2013-01-19 15:33:00,
2013-01-19 10:38:00,47.3,30.1,30.29,West,270,11.1,11.1,51,0.00,,OVC,0.00,VWS V14.00,2013-01-19 15:38:00,
2013-01-19 10:43:00,47.4,29.2,30.28,WSW,248,5.5,5.5,49,0.00,,OVC,0.00,VWS V14.00,2013-01-19 15:43:00,
2013-01-19 10:48:00,47.8,29.6,30.28,South,180,10.9,10.9,49,0.00,,OVC,0.00,VWS V14.00,2013-01-19 15:48:00,
2013-01-19 10:53:00,48.0,29.8,30.27,SSW,202,6.7,6.7,49,0.00,,OVC,0.00,VWS V14.00,2013-01-19 15:53:00,
2013-01-19 10:58:00,48.0,29.3,30.26,WSW,248,4.6,4.6,48,0.00,,OVC,0.00,VWS V14.00,2013-01-19 15:58:00,
2013-01-19 11:03:00,48.2,28.9,30.26,WSW,248,9.8,9.8,47,0.00,,OVC,0.00,VWS V14.00,2013-01-19 16:03:00,
2013-01-19 11:08:00,48.3,29.5,30.25,SW,225,4.6,4.6,48,0.00,,OVC,0.00,VWS V14.00,2013-01-19 16:08:00,
2013-01-19 11:13:00,48.5,29.7,30.25,WSW,248,8.9,8.9,48,0.00,,OVC,0.00,VWS V14.00,2013-01-19 16:13:00,
2013-01-19 11:18:00,48.9,30.1,30.24,SW,225,10.5,10.5,48,0.00,,OVC,0.00,VWS V14.00,2013-01-19 16:18:00,
2013-01-19 11:23:00,49.1,29.2,30.24,SSW,202,4.6,4.6,46,0.00,,OVC,0.00,VWS V14.00,2013-01-19 16:23:00,
2013-01-19 11:28:00,49.6,29.7,30.23,SW,225,0.6,0.6,46,0.00,,OVC,0.00,VWS V14.00,2013-01-19 16:28:00,
2013-01-19 11:33:00,50.1,30.1,30.23,WSW,248,8.9,8.9,46,0.00,,OVC,0.00,VWS V14.00,2013-01-19 16:33:00,
2013-01-19 11:38:00,50.3,30.3,30.22,West,270,0.8,0.8,46,0.00,,OVC,0.00,VWS V14.00,2013-01-19 16:38:00,
2013-01-19 11:43:00,50.7,30.7,30.22,SW,225,5.3,5.3,46,0.00,,OVC,0.00,VWS V14.00,2013-01-19 16:43:00,
2013-01-19 11:48:00,50.9,30.3,30.21,WSW,248,5.3,5.3,45,0.00,,OVC,0.00,VWS V14.00,2013-01-19 16:48:00,
2013-01-19 11:53:00,51.2,30.6,30.21,WSW,248,4.4,4.4,45,0.00,,OVC,0.00,VWS V14.00,2013-01-19 16:53:00,
2013-01-19 11:58:00,51.6,30.4,30.21,WSW,248,12.5,12.5,44,0.00,,OVC,0.00,VWS V14.00,2013-01-19 16:58:00,
2013-01-19 12:03:00,51.9,30.1,30.21,SW,225,6.7,6.7,43,0.00,,OVC,0.00,VWS V14.00,2013-01-19 17:03:00,
2013-01-19 12:08:00,51.9,30.7,30.20,WSW,248,5.3,5.3,44,0.00,,OVC,0.00,VWS V14.00,2013-01-19 17:08:00,
2013-01-19 12:13:00,52.1,30.9,30.19,WSW,248,8.0,8.0,44,0.00,,OVC,0.00,VWS V14.00,2013-01-19 17:13:00,
2013-01-19 12:18:00,52.1,30.3,30.19,SW,225,6.7,6.7,43,0.00,,OVC,0.00,VWS V14.00,2013-01-19 17:18:00,
2013-01-19 12:23:00,52.1,30.3,30.19,WSW,248,6.9,6.9,43,0.00,,OVC,0.00,VWS V14.00,2013-01-19 17:23:00,
2013-01-19 12:28:00,52.3,30.5,30.18,SW,225,5.3,5.3,43,0.00,,OVC,0.00,VWS V14.00,2013-01-19 17:28:00,
2013-01-19 12:33:00,52.5,30.1,30.18,SW,225,7.6,7.6,42,0.00,,OVC,0.00,VWS V14.00,2013-01-19 17:33:00,
2013-01-19 12:38:00,52.3,30.5,30.18,SW,225,16.3,16.3,43,0.00,,OVC,0.00,VWS V14.00,2013-01-19 17:38:00,
2013-01-19 12:43:00,52.3,29.9,30.18,WSW,248,6.2,6.2,42,0.00,,OVC,0.00,VWS V14.00,2013-01-19 17:43:00,
2013-01-19 12:48:00,52.1,29.7,30.17,SW,225,3.5,3.5,42,0.00,,OVC,0.00,VWS V14.00,2013-01-19 17:48:00,
2013-01-19 12:53:00,52.3,29.9,30.17,WSW,248,11.4,11.4,42,0.00,,OVC,0.00,VWS V14.00,2013-01-19 17:53:00,
2013-01-19 12:59:00,52.3,29.9,30.17,SW,225,6.4,6.4,42,0.00,,OVC,0.00,VWS V14.00,2013-01-19 17:59:00,
2013-01-19 13:04:00,52.3,29.3,30.17,West,270,3.5,3.5,41,0.00,,OVC,0.00,VWS V14.00,2013-01-19 18:04:00,
2013-01-19 13:09:00,52.7,30.3,30.16,WSW,248,4.9,4.9,42,0.00,,OVC,0.00,VWS V14.00,2013-01-19 18:09:00,
2013-01-19 13:14:00,52.5,30.1,30.16,WSW,248,9.6,9.6,42,0.00,,OVC,0.00,VWS V14.00,2013-01-19 18:14:00,
2013-01-19 13:19:00,52.3,29.9,30.16,SSW,202,11.1,11.1,42,0.00,,OVC,0.00,VWS V14.00,2013-01-19 18:19:00,
2013-01-19 13:24:00,52.5,29.5,30.15,West,270,7.6,7.6,41,0.00,,OVC,0.00,VWS V14.00,2013-01-19 18:24:00,
2013-01-19 13:29:00,52.5,29.5,30.15,SSW,202,3.5,3.5,41,0.00,,OVC,0.00,VWS V14.00,2013-01-19 18:29:00,
2013-01-19 13:34:00,52.5,30.1,30.15,West,270,5.3,5.3,42,0.00,,OVC,0.00,VWS V14.00,2013-01-19 18:34:00,
2013-01-19 13:39:00,52.7,30.3,30.15,SW,225,6.4,6.4,42,0.00,,OVC,0.00,VWS V14.00,2013-01-19 18:39:00,
2013-01-19 13:44:00,52.7,30.3,30.15,SW,225,2.9,2.9,42,0.00,,OVC,0.00,VWS V14.00,2013-01-19 18:44:00,
2013-01-19 13:49:00,52.8,30.4,30.14,WSW,248,8.9,8.9,42,0.00,,OVC,0.00,VWS V14.00,2013-01-19 18:49:00,
2013-01-19 13:54:00,52.7,30.3,30.14,WSW,248,0.6,0.6,42,0.00,,OVC,0.00,VWS V14.00,2013-01-19 18:54:00,
2013-01-19 13:59:00,52.5,30.1,30.14,SSW,202,4.4,4.4,42,0.00,,OVC,0.00,VWS V14.00,2013-01-19 18:59:00,
2013-01-19 14:04:00,52.5,30.1,30.13,SW,225,13.4,13.4,42,0.00,,OVC,0.00,VWS V14.00,2013-01-19 19:04:00,
2013-01-19 14:10:00,52.7,30.3,30.13,West,270,4.6,9.8,42,0.00,,OVC,0.00,VWS V14.00,2013-01-19 19:10:00,
2013-01-19 14:15:00,52.5,30.1,30.13,WSW,248,4.2,4.2,42,0.00,,OVC,0.00,VWS V14.00,2013-01-19 19:15:00,
2013-01-19 14:20:00,52.5,30.1,30.13,WSW,248,7.8,7.8,42,0.00,,OVC,0.00,VWS V14.00,2013-01-19 19:20:00,
2013-01-19 14:25:00,52.3,30.5,30.13,SSW,202,6.2,6.2,43,0.00,,OVC,0.00,VWS V14.00,2013-01-19 19:25:00,
2013-01-19 14:30:00,52.3,29.9,30.12,SW,225,12.7,12.7,42,0.00,,OVC,0.00,VWS V14.00,2013-01-19 19:30:00,
2013-01-19 14:35:00,52.3,29.9,30.12,SW,225,6.4,6.4,42,0.00,,OVC,0.00,VWS V14.00,2013-01-19 19:35:00,
2013-01-19 14:40:00,52.3,29.9,30.12,SW,225,3.3,3.3,42,0.00,,OVC,0.00,VWS V14.00,2013-01-19 19:40:00,
2013-01-19 14:45:00,52.3,30.5,30.12,WSW,248,5.1,5.1,43,0.00,,OVC,0.00,VWS V14.00,2013-01-19 19:45:00,
2013-01-19 14:50:00,52.3,30.5,30.12,SW,225,6.2,6.2,43,0.00,,OVC,0.00,VWS V14.00,2013-01-19 19:50:00,
2013-01-19 14:55:00,52.3,29.9,30.11,SW,225,13.1,13.1,42,0.00,,OVC,0.00,VWS V14.00,2013-01-19 19:55:00,
2013-01-19 15:00:00,52.3,29.9,30.11,South,180,2.6,2.6,42,0.00,,OVC,0.00,VWS V14.00,2013-01-19 20:00:00,
2013-01-19 15:05:00,52.3,29.9,30.11,WSW,248,2.2,2.2,42,0.00,,OVC,0.00,VWS V14.00,2013-01-19 20:05:00,
2013-01-19 15:11:00,52.3,29.9,30.11,SW,225,4.6,4.6,42,0.00,,OVC,0.00,VWS V14.00,2013-01-19 20:11:00,
2013-01-19 15:16:00,52.1,29.7,30.11,SW,225,9.8,9.8,42,0.00,,OVC,0.00,VWS V14.00,2013-01-19 20:16:00,
2013-01-19 15:21:00,52.1,29.7,30.11,SW,225,8.2,8.2,42,0.00,,OVC,0.00,VWS V14.00,2013-01-19 20:21:00,
2013-01-19 15:27:00,51.9,29.5,30.11,WSW,248,3.1,3.1,42,0.00,,OVC,0.00,VWS V14.00,2013-01-19 20:27:00,
2013-01-19 15:32:00,51.8,29.5,30.11,WSW,248,3.1,3.1,42,0.00,,OVC,0.00,VWS V14.00,2013-01-19 20:32:00,
2013-01-19 15:37:00,51.6,29.9,30.10,SW,225,3.5,3.5,43,0.00,,OVC,0.00,VWS V14.00,2013-01-19 20:37:00,
2013-01-19 15:42:00,51.6,29.9,30.10,WSW,248,3.3,3.3,43,0.00,,OVC,0.00,VWS V14.00,2013-01-19 20:42:00,
2013-01-19 15:47:00,51.4,29.7,30.11,SSW,202,3.1,3.1,43,0.00,,OVC,0.00,VWS V14.00,2013-01-19 20:47:00,
2013-01-19 15:52:00,51.4,29.7,30.10,SW,225,4.0,4.0,43,0.00,,OVC,0.00,VWS V14.00,2013-01-19 20:52:00,
2013-01-19 15:57:00,51.0,29.3,30.10,SW,225,2.4,2.4,43,0.00,,OVC,0.00,VWS V14.00,2013-01-19 20:57:00,
2013-01-19 16:02:00,50.9,29.2,30.10,SW,225,2.0,2.0,43,0.00,,OVC,0.00,VWS V14.00,2013-01-19 21:02:00,
2013-01-19 16:07:00,50.7,29.6,30.10,SW,225,6.0,6.0,44,0.00,,OVC,0.00,VWS V14.00,2013-01-19 21:07:00,
2013-01-19 16:13:00,50.5,29.4,30.09,SW,225,4.9,4.9,44,0.00,,OVC,0.00,VWS V14.00,2013-01-19 21:13:00,
2013-01-19 16:18:00,50.1,29.0,30.09,SW,225,10.5,10.5,44,0.00,,OVC,0.00,VWS V14.00,2013-01-19 21:18:00,
2013-01-19 16:23:00,49.8,29.3,30.09,WSW,248,5.3,5.3,45,0.00,,OVC,0.00,VWS V14.00,2013-01-19 21:23:00,
2013-01-19 16:28:00,49.6,29.1,30.09,West,270,5.3,5.3,45,0.00,,OVC,0.00,VWS V14.00,2013-01-19 21:28:00,
2013-01-19 16:34:00,49.2,28.8,30.09,WSW,248,2.9,2.9,45,0.00,,OVC,0.00,VWS V14.00,2013-01-19 21:34:00,
2013-01-19 16:39:00,48.9,28.5,30.09,West,270,2.4,2.4,45,0.00,,OVC,0.00,VWS V14.00,2013-01-19 21:39:00,
2013-01-19 16:44:00,48.5,28.7,30.09,SW,225,4.6,4.6,46,0.00,,OVC,0.00,VWS V14.00,2013-01-19 21:44:00,
2013-01-19 16:49:00,48.3,28.5,30.09,WSW,248,5.8,5.8,46,0.00,,OVC,0.00,VWS V14.00,2013-01-19 21:49:00,
2013-01-19 16:55:00,48.0,28.2,30.08,WSW,248,0.0,0.0,46,0.00,,OVC,0.00,VWS V14.00,2013-01-19 21:55:00,
2013-01-19 17:00:00,47.6,27.9,30.08,SSW,202,3.1,3.1,46,0.00,,OVC,0.00,VWS V14.00,2013-01-19 22:00:00,
2013-01-19 17:05:00,47.3,27.6,30.08,SW,225,8.9,8.9,46,0.00,,OVC,0.00,VWS V14.00,2013-01-19 22:05:00,
2013-01-19 17:10:00,47.1,27.9,30.08,SW,225,4.2,4.2,47,0.00,,OVC,0.00,VWS V14.00,2013-01-19 22:10:00,
2013-01-19 17:15:00,46.9,27.7,30.08,SW,225,0.8,0.8,47,0.00,,OVC,0.00,VWS V14.00,2013-01-19 22:15:00,
2013-01-19 17:20:00,46.5,27.4,30.08,WSW,248,0.8,0.8,47,0.00,,OVC,0.00,VWS V14.00,2013-01-19 22:20:00,
2013-01-19 17:25:00,46.5,27.9,30.08,SW,225,2.2,2.2,48,0.00,,OVC,0.00,VWS V14.00,2013-01-19 22:25:00,
2013-01-19 17:30:00,46.2,27.6,30.08,WSW,248,2.0,2.0,48,0.00,,OVC,0.00,VWS V14.00,2013-01-19 22:30:00,
2013-01-19 17:35:00,46.0,27.4,30.08,SW,225,0.0,0.0,48,0.00,,OVC,0.00,VWS V14.00,2013-01-19 22:35:00,
2013-01-19 17:40:00,45.5,27.5,30.08,WSW,248,0.0,0.0,49,0.00,,OVC,0.00,VWS V14.00,2013-01-19 22:40:00,
2013-01-19 17:45:00,45.3,27.3,30.08,SW,225,1.5,1.5,49,0.00,,OVC,0.00,VWS V14.00,2013-01-19 22:45:00,
2013-01-19 17:50:00,44.9,26.9,30.08,SW,225,5.8,5.8,49,0.00,,OVC,0.00,VWS V14.00,2013-01-19 22:50:00,
2013-01-19 17:55:00,44.7,27.2,30.08,WSW,248,0.0,6.0,50,0.00,,OVC,0.00,VWS V14.00,2013-01-19 22:55:00,
2013-01-19 18:00:00,44.6,27.1,30.08,WSW,248,2.4,2.4,50,0.00,,OVC,0.00,VWS V14.00,2013-01-19 23:00:00,
2013-01-19 18:05:00,44.6,27.1,30.08,SW,225,2.9,2.9,50,0.00,,OVC,0.00,VWS V14.00,2013-01-19 23:05:00,
2013-01-19 18:10:00,44.4,27.4,30.08,SW,225,0.8,0.8,51,0.00,,OVC,0.00,VWS V14.00,2013-01-19 23:10:00,
2013-01-19 18:15:00,44.4,27.4,30.08,SW,225,1.1,1.1,51,0.00,,OVC,0.00,VWS V14.00,2013-01-19 23:15:00,
2013-01-19 18:20:00,44.0,27.0,30.08,WSW,248,0.0,0.0,51,0.00,,OVC,0.00,VWS V14.00,2013-01-19 23:20:00,
2013-01-19 18:25:00,43.8,26.9,30.08,SW,225,0.0,0.0,51,0.00,,OVC,0.00,VWS V14.00,2013-01-19 23:25:00,
2013-01-19 18:30:00,43.7,26.8,30.08,SW,225,6.2,6.2,51,0.00,,OVC,0.00,VWS V14.00,2013-01-19 23:30:00,
2013-01-19 18:35:00,43.5,27.1,30.08,SSW,202,5.8,5.8,52,0.00,,OVC,0.00,VWS V14.00,2013-01-19 23:35:00,
2013-01-19 18:40:00,43.5,27.1,30.08,West,270,0.0,0.0,52,0.00,,OVC,0.00,VWS V14.00,2013-01-19 23:40:00,
2013-01-19 18:45:00,43.5,27.1,30.08,SW,225,2.9,2.9,52,0.00,,OVC,0.00,VWS V14.00,2013-01-19 23:45:00,
2013-01-19 18:51:00,43.5,27.1,30.08,WSW,248,0.0,0.0,52,0.00,,OVC,0.00,VWS V14.00,2013-01-19 23:51:00,
2013-01-19 18:56:00,43.5,27.1,30.08,WSW,248,2.9,2.9,52,0.00,,OVC,0.00,VWS V14.00,2013-01-19 23:56:00,
2013-01-19 19:01:00,43.3,26.9,30.08,SW,225,6.7,6.7,52,0.00,,OVC,0.00,VWS V14.00,2013-01-20 00:01:00,
2013-01-19 19:06:00,43.1,26.7,30.08,WSW,248,2.4,5.1,52,0.00,,OVC,0.00,VWS V14.00,2013-01-20 00:06:00,
2013-01-19 19:11:00,42.9,26.5,30.08,SW,225,2.0,2.0,52,0.00,,OVC,0.00,VWS V14.00,2013-01-20 00:11:00,
2013-01-19 19:16:00,42.6,26.7,30.08,SSW,202,0.2,0.2,53,0.00,,OVC,0.00,VWS V14.00,2013-01-20 00:16:00,
2013-01-19 19:22:00,42.6,26.7,30.07,WSW,248,2.6,2.6,53,0.00,,OVC,0.00,VWS V14.00,2013-01-20 00:22:00,
2013-01-19 19:27:00,42.6,26.7,30.08,SW,225,2.9,2.9,53,0.00,,OVC,0.00,VWS V14.00,2013-01-20 00:27:00,
2013-01-19 19:32:00,42.4,27.0,30.07,WSW,248,1.1,3.5,54,0.00,,OVC,0.00,VWS V14.00,2013-01-20 00:32:00,
2013-01-19 19:37:00,42.0,27.0,30.08,WSW,248,0.6,0.6,55,0.00,,OVC,0.00,VWS V14.00,2013-01-20 00:37:00,
2013-01-19 19:43:00,42.0,27.5,30.07,WSW,248,4.2,4.2,56,0.00,,OVC,0.00,VWS V14.00,2013-01-20 00:43:00,
2013-01-19 19:48:00,41.9,27.4,30.07,WSW,248,0.0,0.0,56,0.00,,OVC,0.00,VWS V14.00,2013-01-20 00:48:00,
2013-01-19 19:53:00,41.7,27.6,30.07,South,180,3.8,7.8,57,0.00,,OVC,0.00,VWS V14.00,2013-01-20 00:53:00,
2013-01-19 19:58:00,41.7,27.6,30.06,WSW,248,1.7,1.7,57,0.00,,OVC,0.00,VWS V14.00,2013-01-20 00:58:00,
2013-01-19 20:03:00,41.7,28.0,30.06,WSW,248,1.3,1.3,58,0.00,,OVC,0.00,VWS V14.00,2013-01-20 01:03:00,
2013-01-19 20:08:00,41.7,28.0,30.06,NW,315,0.0,0.0,58,0.00,,OVC,0.00,VWS V14.00,2013-01-20 01:08:00,
2013-01-19 20:13:00,41.5,27.8,30.06,SW,225,1.7,1.7,58,0.00,,OVC,0.00,VWS V14.00,2013-01-20 01:13:00,
2013-01-19 20:19:00,41.5,27.8,30.05,SW,225,2.9,2.9,58,0.00,,OVC,0.00,VWS V14.00,2013-01-20 01:19:00,
2013-01-19 20:24:00,41.3,28.1,30.05,WSW,248,2.4,2.4,59,0.00,,OVC,0.00,VWS V14.00,2013-01-20 01:24:00,
2013-01-19 20:29:00,41.1,28.7,30.05,SW,225,6.7,6.7,61,0.00,,OVC,0.00,VWS V14.00,2013-01-20 01:29:00,
2013-01-19 20:34:00,41.0,29.0,30.05,SSW,202,6.0,6.0,62,0.00,,OVC,0.00,VWS V14.00,2013-01-20 01:34:00,
2013-01-19 20:39:00,40.8,28.8,30.05,SW,225,2.4,3.3,62,0.00,,OVC,0.00,VWS V14.00,2013-01-20 01:39:00,
2013-01-19 20:44:00,40.8,29.2,30.05,West,270,3.8,3.8,63,0.00,,OVC,0.00,VWS V14.00,2013-01-20 01:44:00,
2013-01-19 20:49:00,40.6,29.4,30.04,West,270,1.1,1.1,64,0.00,,OVC,0.00,VWS V14.00,2013-01-20 01:49:00,
2013-01-19 20:54:00,40.4,29.2,30.04,SW,225,0.8,0.8,64,0.00,,OVC,0.00,VWS V14.00,2013-01-20 01:54:00,
2013-01-19 21:00:00,40.2,29.0,30.04,WSW,248,10.9,10.9,64,0.00,,OVC,0.00,VWS V14.00,2013-01-20 02:00:00,
2013-01-19 21:05:00,40.2,29.0,30.04,WSW,248,4.9,4.9,64,0.00,,OVC,0.00,VWS V14.00,2013-01-20 02:05:00,
2013-01-19 21:10:00,40.2,29.0,30.03,WSW,248,0.8,3.5,64,0.00,,OVC,0.00,VWS V14.00,2013-01-20 02:10:00,
2013-01-19 21:15:00,40.1,28.9,30.03,SSW,202,5.5,5.5,64,0.00,,OVC,0.00,VWS V14.00,2013-01-20 02:15:00,
2013-01-19 21:20:00,40.1,28.5,30.03,WSW,248,5.8,5.8,63,0.00,,OVC,0.00,VWS V14.00,2013-01-20 02:20:00,
2013-01-19 21:25:00,40.1,28.5,30.03,SSW,202,5.1,5.1,63,0.00,,OVC,0.00,VWS V14.00,2013-01-20 02:25:00,
2013-01-19 21:30:00,40.1,28.5,30.03,WSW,248,3.5,3.5,63,0.00,,OVC,0.00,VWS V14.00,2013-01-20 02:30:00,
2013-01-19 21:35:00,39.9,28.3,30.02,WSW,248,6.2,6.2,63,0.00,,OVC,0.00,VWS V14.00,2013-01-20 02:35:00,
2013-01-19 21:40:00,39.9,28.3,30.03,SW,225,6.9,6.9,63,0.00,,OVC,0.00,VWS V14.00,2013-01-20 02:40:00,
2013-01-19 21:45:00,39.9,28.7,30.02,SW,225,3.3,6.7,64,0.00,,OVC,0.00,VWS V14.00,2013-01-20 02:45:00,
2013-01-19 21:50:00,39.9,28.7,30.02,SW,225,3.1,3.1,64,0.00,,OVC,0.00,VWS V14.00,2013-01-20 02:50:00,
2013-01-19 21:55:00,39.7,28.5,30.02,WSW,248,0.8,2.6,64,0.00,,OVC,0.00,VWS V14.00,2013-01-20 02:55:00,
2013-01-19 22:00:00,39.5,28.4,30.02,WSW,248,0.0,0.0,64,0.00,,OVC,0.00,VWS V14.00,2013-01-20 03:00:00,
2013-01-19 22:05:00,39.5,28.4,30.01,WSW,248,3.3,3.3,64,0.00,,OVC,0.00,VWS V14.00,2013-01-20 03:05:00,
2013-01-19 22:10:00,39.5,28.4,30.01,WSW,248,1.1,1.1,64,0.00,,OVC,0.00,VWS V14.00,2013-01-20 03:10:00,
2013-01-19 22:15:00,39.3,28.2,30.01,WSW,248,3.8,3.8,64,0.00,,OVC,0.00,VWS V14.00,2013-01-20 03:15:00,
2013-01-19 22:20:00,39.3,28.2,30.00,West,270,2.4,2.4,64,0.00,,OVC,0.00,VWS V14.00,2013-01-20 03:20:00,
2013-01-19 22:25:00,39.3,28.2,30.00,WSW,248,3.1,3.1,64,0.00,,OVC,0.00,VWS V14.00,2013-01-20 03:25:00,
2013-01-19 22:29:00,39.4,28.2,30.01,SSW,202,6.3,6.3,64,99.99,,OVC,99.99,VWS V14.00,2013-01-20 03:29:00,
2013-01-19 22:45:00,39.4,28.2,52.62,SSW,202,0.0,6.3,64,99.99,,OVC,99.99,VWS V14.00,2013-01-20 03:45:00,
2013-01-19 22:50:00,39.3,28.2,29.99,SSW,202,7.1,7.1,64,0.00,,OVC,0.00,VWS V14.00,2013-01-20 03:50:00,
2013-01-19 22:55:00,39.3,28.2,29.99,SSW,202,6.0,6.0,64,0.00,,OVC,0.00,VWS V14.00,2013-01-20 03:55:00,
2013-01-19 23:00:00,39.3,28.2,29.99,SW,225,12.7,12.7,64,0.00,,OVC,0.00,VWS V14.00,2013-01-20 04:00:00,
2013-01-19 23:05:00,39.3,28.2,29.98,WSW,248,4.9,4.9,64,0.00,,OVC,0.00,VWS V14.00,2013-01-20 04:05:00,
2013-01-19 23:10:00,39.3,28.2,29.98,SW,225,2.2,2.2,64,0.00,,OVC,0.00,VWS V14.00,2013-01-20 04:10:00,
2013-01-19 23:15:00,39.3,28.2,29.98,SW,225,0.0,0.0,64,0.00,,OVC,0.00,VWS V14.00,2013-01-20 04:15:00,
2013-01-19 23:20:00,39.3,28.2,29.98,SW,225,6.4,6.4,64,0.00,,OVC,0.00,VWS V14.00,2013-01-20 04:20:00,
2013-01-19 23:25:00,39.3,28.2,29.98,SSW,202,2.6,8.0,64,0.00,,OVC,0.00,VWS V14.00,2013-01-20 04:25:00,
2013-01-19 23:30:00,39.7,28.5,29.97,WSW,248,5.5,7.8,64,0.00,,OVC,0.00,VWS V14.00,2013-01-20 04:30:00,
2013-01-19 23:35:00,39.7,28.1,29.97,SW,225,3.1,3.1,63,0.00,,OVC,0.00,VWS V14.00,2013-01-20 04:35:00,
2013-01-19 23:40:00,39.7,28.1,29.96,SW,225,4.2,11.1,63,0.00,,OVC,0.00,VWS V14.00,2013-01-20 04:40:00,
2013-01-19 23:45:00,39.7,28.1,29.96,SW,225,5.5,13.8,63,0.00,,OVC,0.00,VWS V14.00,2013-01-20 04:45:00,
2013-01-19 23:50:00,39.7,28.1,29.95,WSW,248,2.0,2.0,63,0.00,,OVC,0.00,VWS V14.00,2013-01-20 04:50:00,
2013-01-19 23:55:00,39.7,28.1,29.95,West,270,5.3,5.3,63,0.00,,OVC,0.00,VWS V14.00,2013-01-20 04:55:00,